9A3ZI-11 Weather Reports


time (UTC)temp
F
wind
direction
speed
knots
gust
knots
rain 1hr
in
rain 24hr
in
rain mn
in
humidity
%
barometer
mb
20260507183613 59 0.0 0.0 0.00 0.05 0.05 32 1009.8
20260507183009 59 0.0 0.0 0.00 0.05 0.05 32 1009.7
20260507182406 60 0.0 0.0 0.00 0.05 0.05 31 1009.5
20260507181902 60 180 2.6 4.3 0.00 0.05 0.05 32 1009.4
20260507181257 60 0.0 0.0 0.00 0.05 0.05 32 1009.3
20260507180752 60 0.0 0.0 0.00 0.05 0.05 32 1009.4
20260507180248 61 0.0 0.0 0.00 0.05 0.05 31 1009.4
20260507175743 61 0.0 0.0 0.00 0.05 0.05 31 1009.2
20260507175239 62 0.0 0.0 0.00 0.05 0.05 31 1009.2
20260507174734 63 180 2.6 4.3 0.00 0.05 0.05 30 1009.3
20260507174230 64 0.0 0.0 0.00 0.05 0.05 24 1009.1
20260507173725 64 0.0 0.0 0.00 0.05 0.05 23 1009.2
20260507173312 64 0.0 0.0 0.00 0.05 0.05 23 1009.4
20260507172715 64 180 0.9 2.6 0.00 0.05 0.05 23 1009.1
20260507172212 65 135 2.6 4.3 0.00 0.05 0.05 22 1009.2
20260507171608 65 180 5.2 7.0 0.00 0.05 0.05 21 1009.3
20260507171005 66 180 2.6 5.2 0.00 0.05 0.05 21 1009.3
20260507170402 66 135 4.3 5.2 0.00 0.05 0.05 20 1009.2
20260507165958 66 180 2.6 3.5 0.00 0.05 0.05 20 1009.3
20260507165453 66 135 5.2 7.0 0.00 0.05 0.05 20 1009.2
20260507164949 66 180 2.6 6.1 0.00 0.05 0.05 21 1009.0
20260507164445 66 180 5.2 7.8 0.00 0.05 0.05 20 1008.9
20260507163939 67 270 6.1 8.7 0.00 0.05 0.05 20 1009.0
20260507163435 67 180 7.0 10.4 0.00 0.05 0.05 20 1009.0
20260507162930 68 180 6.1 8.7 0.00 0.05 0.05 15 1009.1
20260507162425 68 180 6.1 8.7 0.00 0.05 0.05 20 1009.1
20260507161920 68 180 6.1 7.8 0.00 0.05 0.05 15 1009.0
20260507161415 68 135 7.0 9.6 0.00 0.05 0.05 15 1009.1
20260507160912 69 180 5.2 7.8 0.00 0.05 0.05 15 1009.1
20260507160329 69 135 6.1 7.8 0.00 0.05 0.05 15 1009.1
20260507155725 69 90 5.2 7.8 0.00 0.05 0.05 15 1009.1
20260507155102 68 180 6.1 7.8 0.00 0.05 0.05 20 1009.1
20260507154618 66 225 4.3 5.2 0.00 0.05 0.05 20 1009.1
20260507154113 66 135 5.2 7.0 0.00 0.05 0.05 21 1009.2
20260507153608 65 180 7.8 10.4 0.00 0.05 0.05 21 1009.1
20260507153043 66 135 7.8 8.7 0.00 0.05 0.05 20 1009.1
20260507152539 67 135 7.0 9.6 0.00 0.05 0.05 20 1009.1
20260507152055 68 180 5.2 8.7 0.00 0.05 0.05 15 1009.1
20260507151530 67 180 3.5 7.8 0.00 0.05 0.05 21 1009.1
20260507151025 67 315 5.2 8.7 0.00 0.05 0.05 20 1009.2
20260507150521 68 202 7.8 10.4 0.00 0.05 0.05 20 1009.1
20260507150015 67 180 4.3 5.2 0.00 0.05 0.05 20 1009.2
20260507145512 67 225 4.3 7.0 0.00 0.05 0.05 15 1009.3
20260507144911 67 180 5.2 7.0 0.00 0.05 0.05 15 1009.1
20260507144325 68 180 3.5 5.2 0.00 0.05 0.05 15 1009.1
20260507143701 69 135 4.3 7.0 0.00 0.05 0.05 15 1009.3
20260507143156 69 180 7.0 8.7 0.00 0.05 0.05 15 1009.3
20260507142712 69 180 5.2 6.1 0.00 0.05 0.05 15 1009.3
20260507142147 69 180 6.1 8.7 0.00 0.05 0.05 15 1009.3
20260507141643 68 135 2.6 7.0 0.00 0.05 0.05 15 1009.3
20260507141138 69 225 7.8 8.7 0.00 0.05 0.05 15 1009.4
20260507140634 69 135 3.5 7.8 0.00 0.05 0.05 15 1009.5
20260507140129 69 135 3.5 7.8 0.00 0.05 0.05 15 1009.4
20260507135625 69 180 5.2 7.8 0.00 0.05 0.05 15 1009.6
20260507135120 68 135 4.3 6.1 0.00 0.05 0.05 20 1009.6
20260507134620 68 180 5.2 8.7 0.00 0.05 0.05 15 1009.7
20260507134011 68 180 6.1 9.6 0.00 0.05 0.05 20 1009.6
20260507133428 68 180 6.1 7.8 0.00 0.05 0.05 20 1009.9
20260507132804 68 180 5.2 7.8 0.00 0.05 0.05 15 1009.9
20260507132301 67 180 9.6 13.0 0.00 0.05 0.05 20 1009.7
20260507131756 68 135 5.2 6.1 0.00 0.05 0.05 15 1010.1
20260507131252 67 225 5.2 8.7 0.00 0.05 0.05 20 1010.0
20260507130747 66 180 7.8 9.6 0.00 0.05 0.05 20 1010.0
20260507130243 67 135 5.2 8.7 0.00 0.05 0.05 15 1010.2
20260507125738 66 135 5.2 7.8 0.00 0.05 0.05 20 1010.3
20260507125233 67 180 3.5 6.1 0.00 0.05 0.05 21 1010.2
20260507124729 67 135 5.2 7.0 0.00 0.05 0.05 21 1010.2
20260507124224 66 180 5.2 7.0 0.00 0.05 0.05 21 1010.3
20260507123720 65 135 0.9 2.6 0.00 0.05 0.05 22 1010.2
20260507123215 65 135 5.2 6.1 0.00 0.05 0.05 22 1010.3
20260507122732 65 90 5.2 7.8 0.00 0.05 0.05 21 1010.2
20260507122108 65 135 5.2 7.8 0.00 0.05 0.05 21 1010.3
20260507121505 65 180 4.3 5.2 0.00 0.05 0.05 22 1010.2
20260507120901 65 225 5.2 7.0 0.00 0.05 0.05 21 1010.2
20260507120416 65 135 1.7 3.5 0.00 0.05 0.05 24 1010.3
20260507115852 65 202 4.3 7.0 0.00 0.05 0.05 23 1010.4
20260507115347 64 180 5.2 7.8 0.00 0.05 0.05 22 1010.3
20260507114842 64 180 6.1 7.8 0.00 0.05 0.05 23 1010.4
20260507114338 64 180 4.3 7.8 0.00 0.05 0.05 24 1010.5
20260507113833 64 135 5.2 7.0 0.00 0.05 0.05 22 1010.6
20260507113329 65 135 5.2 6.1 0.01 0.05 0.05 22 1010.7
20260507112824 65 180 6.1 9.6 0.01 0.05 0.05 22 1010.6
20260507112319 64 135 1.7 5.2 0.01 0.05 0.05 23 1010.7
20260507111815 64 135 2.6 5.2 0.01 0.05 0.05 23 1010.7
20260507111211 64 135 3.5 5.2 0.01 0.05 0.05 24 1010.6
20260507110628 64 157 4.3 5.2 0.01 0.05 0.05 24 1010.6
20260507110005 63 135 4.3 7.0 0.01 0.05 0.05 28 1010.5
20260507105501 63 180 2.6 5.2 0.01 0.05 0.05 31 1010.5
20260507105016 62 135 3.5 5.2 0.01 0.05 0.05 31 1010.7
20260507104452 63 135 3.5 4.3 0.01 0.05 0.05 31 1010.7
20260507103947 63 180 2.6 6.1 0.01 0.05 0.05 30 1010.5
20260507103443 63 180 3.5 5.2 0.00 0.04 0.04 30 1010.8
20260507102938 62 0.0 0.0 0.00 0.04 0.04 31 1010.8
20260507102433 62 180 3.5 5.2 0.00 0.04 0.04 30 1010.8
20260507101928 62 90 0.9 3.5 0.00 0.04 0.04 28 1010.7
20260507101444 63 180 4.3 6.1 0.01 0.04 0.04 26 1010.7
20260507100920 63 135 4.3 6.1 0.01 0.04 0.04 23 1010.5
20260507100415 63 180 1.7 2.6 0.01 0.04 0.04 30 1011.0
20260507095912 62 135 3.5 5.2 0.02 0.04 0.04 30 1010.7
20260507095308 62 0.0 0.0 0.02 0.04 0.04 34 1010.9
20260507094705 61 180 2.6 4.3 0.03 0.04 0.04 33 1011.1
20260507094121 60 0.0 0.0 0.04 0.04 0.04 37 1011.0
20260507093557 59 180 0.9 2.6 0.04 0.04 0.04 39 1011.2
20260507093052 59 180 1.7 3.5 0.04 0.04 0.04 40 1011.2
20260507092548 59 180 2.6 4.3 0.04 0.04 0.04 41 1011.2
20260507092042 58 225 3.5 5.2 0.04 0.04 0.04 42 1011.0
20260507091558 59 180 4.3 6.1 0.03 0.03 0.03 42 1011.2
20260507091033 59 180 1.7 2.6 0.03 0.03 0.03 43 1011.0
20260507090529 58 225 1.7 2.6 0.03 0.03 0.03 43 1010.9
20260507090044 58 0.0 0.0 0.02 0.02 0.02 42 1010.7
20260507085519 58 225 0.9 1.7 0.02 0.02 0.02 42 1010.6
20260507085015 58 0.0 0.9 0.01 0.01 0.01 42 1010.8
20260507084411 58 180 2.6 3.5 0.01 0.01 0.01 41 1010.7
20260507083808 58 180 1.7 2.6 0.00 0.00 0.00 41 1010.8
20260507083204 58 180 2.6 4.3 0.00 0.00 0.00 41 1010.8
20260507082701 58 180 3.5 5.2 0.00 0.00 0.00 40 1010.9
20260507082156 58 225 4.3 5.2 0.00 0.00 0.00 39 1010.6
20260507081651 58 202 4.3 6.1 0.00 0.00 0.00 35 1010.6
20260507081147 59 202 5.2 7.0 0.00 0.00 0.00 33 1010.4
20260507080642 60 180 4.3 6.1 0.00 0.00 0.00 30 1010.3
20260507080138 60 180 4.3 6.1 0.00 0.00 0.00 30 1010.3
20260507075633 60 180 5.2 7.0 0.00 0.00 0.00 28 1010.2
20260507075129 61 180 5.2 7.8 0.00 0.00 0.00 24 1010.2
20260507074624 62 180 2.6 4.3 0.00 0.00 0.00 22 1010.0
20260507074119 62 202 3.5 6.1 0.00 0.00 0.00 22 1009.9
20260507073635 62 225 6.1 8.7 0.00 0.00 0.00 20 1009.7
20260507073012 62 180 7.0 8.7 0.00 0.00 0.00 20 1009.7
20260507072408 62 180 5.2 7.0 0.00 0.00 0.00 22 1009.6
20260507071825 62 180 7.0 7.8 0.00 0.00 0.00 22 1009.5
20260507071202 62 180 5.2 6.1 0.00 0.00 0.00 22 1009.7
20260507070758 62 180 6.1 10.4 0.00 0.00 0.00 22 1009.5
20260507070253 61 180 4.3 5.2 0.00 0.00 0.00 22 1009.5
20260507065749 61 202 3.5 5.2 0.00 0.00 0.00 24 1009.5
20260507065245 60 180 5.2 7.8 0.00 0.00 0.00 24 1009.4
20260507064800 60 202 4.3 6.1 0.00 0.00 0.00 24 1009.3
20260507064235 60 225 5.2 6.1 0.00 0.00 0.00 24 1009.4
20260507063730 60 180 3.5 4.3 0.00 0.00 0.00 24 1009.3
20260507063306 60 135 3.5 5.2 0.00 0.00 0.00 24 1009.3
20260507062722 60 180 7.0 7.8 0.00 0.00 0.00 24 1009.4
20260507062237 60 0.0 0.0 0.00 0.00 0.00 26 1009.3
20260507061713 60 180 1.7 2.6 0.00 0.00 0.00 26 1009.2
20260507061110 60 180 3.5 5.2 0.00 0.00 0.00 24 1009.4
20260507060506 59 180 2.6 4.3 0.00 0.00 0.00 26 1009.2
20260507055903 59 225 4.3 5.2 0.00 0.00 0.00 26 1009.2
20260507055359 59 180 5.2 5.2 0.00 0.00 0.00 28 1009.1
20260507054854 59 180 3.5 6.1 0.00 0.00 0.00 30 1009.1
20260507054349 58 180 2.6 4.3 0.00 0.00 0.00 30 1009.1
20260507053844 58 202 1.7 3.5 0.00 0.00 0.00 30 1009.1
20260507053340 58 0.0 0.0 0.00 0.00 0.00 30 1008.8
20260507052836 58 180 2.6 3.5 0.00 0.00 0.00 30 1009.0
20260507052331 58 180 2.6 3.5 0.00 0.00 0.00 30 1008.8
20260507051827 57 0.0 0.0 0.00 0.00 0.00 30 1008.9
20260507051322 57 225 4.3 5.2 0.00 0.00 0.00 30 1008.7
20260507050818 57 225 3.5 5.2 0.00 0.00 0.00 30 1008.8
20260507050314 57 202 4.3 5.2 0.00 0.00 0.00 30 1008.9
20260507045710 56 180 0.9 1.7 0.00 0.00 0.00 30 1008.7
20260507045106 56 0.0 0.0 0.00 0.00 0.00 30 1008.8
20260507044503 56 0.0 0.0 0.00 0.00 0.00 30 1008.8
20260507044100 56 0.0 0.0 0.00 0.00 0.00 30 1008.6
20260507043556 56 0.0 0.0 0.00 0.00 0.00 30 1008.6
20260507043052 56 0.0 0.0 0.00 0.00 0.00 30 1008.6
20260507042547 55 0.0 0.0 0.00 0.00 0.00 30 1008.4
20260507042042 55 225 1.7 2.6 0.00 0.00 0.00 31 1008.6
20260507041538 55 0.0 0.0 0.00 0.00 0.00 31 1008.5
20260507041053 55 0.0 0.0 0.00 0.00 0.00 31 1008.6
20260507040548 54 0.0 0.0 0.00 0.00 0.00 32 1008.4
20260507040022 54 0.0 0.0 0.00 0.00 0.00 32 1008.4
20260507035518 54 0.0 0.0 0.00 0.00 0.00 32 1008.4
20260507035014 54 0.0 0.9 0.00 0.00 0.00 33 1008.2
20260507034410 53 180 0.0 1.7 0.00 0.00 0.00 40 1008.3
20260507033807 53 0.0 0.0 0.00 0.00 0.00 40 1008.3
20260507033203 52 0.0 0.0 0.00 0.00 0.00 40 1008.2
20260507032659 52 0.0 0.0 0.00 0.00 0.00 39 1008.3
20260507032215 53 0.0 0.0 0.00 0.00 0.00 39 1008.1
20260507031730 53 0.0 0.0 0.00 0.00 0.00 38 1008.0
20260507031145 53 0.0 0.0 0.00 0.00 0.00 36 1008.1
20260507030641 53 0.0 0.0 0.00 0.00 0.00 35 1008.1
20260507030136 54 0.0 0.0 0.00 0.00 0.00 34 1008.0
20260507025632 54 0.0 0.0 0.00 0.00 0.00 32 1008.1
20260507025127 54 0.0 0.0 0.00 0.00 0.00 32 1008.0
20260507024622 55 0.0 0.0 0.00 0.00 0.00 32 1007.6
20260507024118 55 0.0 0.0 0.00 0.00 0.00 33 1008.0
20260507023614 54 0.0 0.0 0.00 0.00 0.00 37 1007.9
20260507023010 54 0.0 0.0 0.00 0.00 0.00 36 1008.0
20260507022407 54 0.0 0.0 0.00 0.00 0.00 37 1007.9
20260507021803 53 0.0 0.0 0.00 0.00 0.00 38 1007.9
20260507021259 53 0.0 0.0 0.00 0.00 0.00 38 1007.9
20260507020755 53 0.0 0.0 0.00 0.00 0.00 37 1007.7
20260507020411 54 0.0 0.0 0.00 0.00 0.00 35 1007.5
20260507015745 54 0.0 0.0 0.00 0.00 0.00 34 1007.6
20260507015241 54 0.0 0.0 0.00 0.00 0.00 31 1007.7
20260507014736 54 0.0 0.0 0.00 0.00 0.00 31 1007.7
20260507014252 54 0.0 0.0 0.00 0.00 0.00 31 1007.9
20260507013757 55 0.0 0.0 0.00 0.00 0.00 30 1008.0
20260507013252 55 0.0 0.0 0.00 0.00 0.00 30 1008.0
20260507012748 55 0.0 0.0 0.00 0.00 0.00 30 1007.9
20260507012243 56 0.0 0.0 0.00 0.00 0.00 30 1008.0
20260507011739 57 0.0 0.0 0.00 0.00 0.00 28 1008.0
20260507011234 57 0.0 0.0 0.00 0.00 0.00 28 1007.9
20260507010729 57 0.0 0.0 0.00 0.00 0.00 28 1007.9
20260507010225 57 180 3.5 5.2 0.00 0.00 0.00 28 1007.9
20260507005720 57 0.0 0.0 0.00 0.00 0.00 28 1007.9
20260507005235 57 180 0.9 2.6 0.00 0.00 0.00 28 1008.3
20260507004612 57 0.0 0.9 0.00 0.00 0.00 30 1008.2
20260507004008 57 0.0 0.0 0.00 0.00 0.00 30 1008.3
20260507003424 56 0.0 0.0 0.00 0.00 0.00 31 1008.2
20260507002901 56 0.0 0.0 0.00 0.00 0.00 31 1008.1
20260507002356 56 0.0 0.0 0.00 0.00 0.00 32 1008.2
20260507001852 55 0.0 0.0 0.00 0.00 0.00 33 1008.1
20260507001347 55 0.0 0.0 0.00 0.00 0.00 34 1008.2
20260507000843 55 0.0 0.0 0.00 0.00 0.00 34 1008.1
20260507000338 56 0.0 0.0 0.00 0.00 0.00 34 1008.2
20260506235834 56 0.0 0.0 0.00 0.00 0.00 34 1008.2
20260506235330 56 0.0 0.0 0.00 0.00 0.00 33 1008.1
20260506234826 56 0.0 0.0 0.00 0.00 0.00 33 1008.0
20260506234321 57 0.0 0.0 0.00 0.00 0.00 33 1008.2
20260506233816 57 0.0 0.0 0.00 0.00 0.00 33 1008.2
20260506233313 57 0.0 0.0 0.00 0.00 0.00 33 1008.1
20260506232709 57 0.0 0.0 0.00 0.00 0.00 33 1008.1
20260506232106 57 0.0 0.0 0.00 0.00 0.00 34 1008.1
20260506231503 57 225 2.6 3.5 0.00 0.00 0.00 35 1008.3
20260506231119 56 225 2.6 4.3 0.00 0.00 0.00 35 1008.2
20260506230555 56 0.0 0.0 0.00 0.00 0.00 34 1008.2
20260506230051 57 0.0 0.0 0.00 0.00 0.00 34 1008.2
20260506225546 57 0.0 0.0 0.00 0.00 0.00 34 1008.2
20260506225101 57 0.0 0.0 0.00 0.00 0.00 34 1008.0
20260506224537 57 0.0 0.0 0.00 0.00 0.00 34 1007.9
20260506224032 57 180 0.9 1.7 0.00 0.00 0.00 34 1007.7
20260506223548 57 0.0 0.0 0.00 0.00 0.00 34 1007.9
20260506223023 57 135 0.9 2.6 0.00 0.00 0.00 35 1007.9
20260506222519 57 0.0 0.0 0.00 0.00 0.00 35 1008.2
20260506222015 57 0.0 0.0 0.00 0.00 0.00 35 1008.1
20260506221412 57 0.0 0.0 0.00 0.00 0.00 35 1008.2
20260506220808 57 0.0 0.0 0.00 0.00 0.00 35 1008.2
20260506220205 58 0.0 0.0 0.00 0.00 0.00 34 1008.0
20260506215701 58 0.0 0.0 0.00 0.00 0.00 34 1007.9
20260506215155 58 0.0 0.0 0.00 0.00 0.00 34 1007.9
20260506214650 58 0.0 0.0 0.00 0.00 0.00 34 1007.7
20260506214146 58 0.0 0.0 0.00 0.00 0.00 34 1007.6
20260506213639 58 0.0 0.0 0.00 0.00 0.00 34 1007.7
20260506213134 58 0.0 0.0 0.00 0.00 0.00 34 1007.6
20260506212650 58 0.0 0.0 0.00 0.00 0.00 34 1007.7
20260506212125 58 0.0 0.0 0.00 0.00 0.00 34 1007.6
20260506211640 57 0.0 0.0 0.00 0.00 0.00 34 1007.5
20260506211115 57 0.0 0.0 0.00 0.00 0.00 34 1007.6
20260506210612 57 0.0 0.0 0.00 0.00 0.00 34 1007.6
20260506210009 57 0.0 0.0 0.00 0.00 0.00 34 1007.6
20260506205406 57 0.0 0.0 0.00 0.00 0.00 33 1007.4
20260506204821 57 0.0 0.0 0.00 0.00 0.00 32 1007.5
20260506204418 58 0.0 0.0 0.00 0.00 0.00 32 1007.5
20260506203853 58 0.0 0.0 0.00 0.00 0.00 32 1007.5
20260506203349 58 0.0 0.0 0.00 0.00 0.00 32 1007.5
20260506202844 59 0.0 0.0 0.00 0.00 0.00 31 1007.4
20260506202339 59 0.0 0.0 0.00 0.00 0.00 31 1007.3
20260506201955 59 0.0 0.0 0.00 0.00 0.00 31 1007.3
20260506201350 60 180 1.7 2.6 0.00 0.00 0.00 31 1007.3
20260506200826 60 135 2.6 4.3 0.00 0.00 0.00 31 1007.3
20260506200340 60 225 2.6 4.3 0.00 0.00 0.00 31 1007.1
20260506195856 60 180 0.9 1.7 0.00 0.00 0.00 31 1007.3
20260506195312 60 180 1.7 3.5 0.00 0.00 0.00 31 1007.4
20260506194709 60 0.0 0.0 0.00 0.00 0.00 31 1007.3
20260506194105 60 0.0 0.0 0.00 0.00 0.00 31 1007.3
20260506193522 60 0.0 0.0 0.00 0.00 0.00 31 1007.2
20260506193058 60 0.0 0.0 0.00 0.00 0.00 31 1007.2
20260506192554 60 225 0.0 1.7 0.00 0.00 0.00 31 1007.1
20260506192050 60 180 0.0 2.6 0.00 0.00 0.00 31 1006.9
20260506191544 60 135 2.6 4.3 0.00 0.00 0.00 31 1006.9
20260506191041 60 225 2.6 2.6 0.00 0.00 0.00 30 1007.0
20260506190536 60 0.0 0.0 0.00 0.00 0.00 30 1006.9
20260506190030 61 0.0 0.0 0.00 0.00 0.00 30 1006.8
20260506185526 61 180 1.7 2.6 0.00 0.00 0.00 28 1006.8
20260506185021 61 202 2.6 2.6 0.00 0.00 0.00 26 1006.8
20260506184516 62 180 1.7 2.6 0.00 0.00 0.00 24 1006.9
20260506184033 62 180 2.6 4.3 0.00 0.00 0.00 24 1006.8